Time,TemperatureF,DewpointF,PressureIn,WindDirection,WindDirectionDegrees,WindSpeedMPH,WindSpeedGustMPH,Humidity,HourlyPrecipIn,Conditions,Clouds,dailyrainin,SoftwareType,DateUTC
2013-12-13 00:02:00,12.0,4.0,-100.00,North,2,2.0,3.0,71,0.00,,,0.00,,2013-12-13 06:02:00,
2013-12-13 00:43:00,12.0,4.0,-100.00,NE,34,3.0,5.0,71,0.00,,,0.00,,2013-12-13 06:43:00,
2013-12-13 00:52:00,12.0,4.0,-100.00,NE,34,3.0,5.0,71,0.00,,,0.00,,2013-12-13 06:52:00,
2013-12-13 01:02:00,12.0,4.0,-100.00,NE,34,3.0,5.0,71,0.00,,,0.00,,2013-12-13 07:02:00,
2013-12-13 01:42:00,12.0,6.0,-100.00,NE,35,3.0,7.0,76,0.00,,,0.00,,2013-12-13 07:42:00,
2013-12-13 01:52:00,12.0,6.0,-100.00,NE,35,3.0,7.0,76,0.00,,,0.00,,2013-12-13 07:52:00,
2013-12-13 02:02:00,12.0,6.0,-100.00,NE,35,3.0,7.0,76,0.00,,,0.00,,2013-12-13 08:02:00,
2013-12-13 02:42:00,12.0,5.0,-100.00,NE,46,5.0,8.0,73,0.00,,,0.00,,2013-12-13 08:42:00,
2013-12-13 02:52:00,12.0,5.0,-100.00,NE,46,5.0,8.0,73,0.00,,,0.00,,2013-12-13 08:52:00,
2013-12-13 03:02:00,12.0,5.0,-100.00,NE,46,5.0,8.0,73,0.00,,,0.00,,2013-12-13 09:02:00,
2013-12-13 03:43:00,11.0,4.0,-100.00,NE,49,4.0,9.0,72,0.00,,,0.00,,2013-12-13 09:43:00,
2013-12-13 03:54:00,11.0,4.0,-100.00,NE,49,4.0,9.0,72,0.00,,,0.00,,2013-12-13 09:54:00,
2013-12-13 04:03:00,11.0,4.0,-100.00,NE,49,4.0,9.0,72,0.00,,,0.00,,2013-12-13 10:03:00,
2013-12-13 04:43:00,9.0,2.0,-100.00,NE,39,7.0,12.0,73,0.00,,,0.00,,2013-12-13 10:43:00,
2013-12-13 04:53:00,9.0,2.0,-100.00,NE,39,7.0,12.0,73,0.00,,,0.00,,2013-12-13 10:53:00,
2013-12-13 05:02:00,9.0,2.0,-100.00,NE,39,7.0,12.0,73,0.00,,,0.00,,2013-12-13 11:02:00,
2013-12-13 05:43:00,8.0,1.0,-100.00,NE,38,6.0,13.0,73,0.00,,,0.00,,2013-12-13 11:43:00,
2013-12-13 05:53:00,8.0,1.0,-100.00,NE,38,6.0,13.0,73,0.00,,,0.00,,2013-12-13 11:53:00,
2013-12-13 06:02:00,8.0,1.0,-100.00,NE,38,6.0,13.0,73,0.00,,,0.00,,2013-12-13 12:02:00,
2013-12-13 06:42:00,7.0,0.0,-100.00,NE,34,7.0,13.0,71,0.00,,,0.00,,2013-12-13 12:42:00,
2013-12-13 06:53:00,7.0,0.0,-100.00,NE,34,7.0,13.0,71,0.00,,,0.00,,2013-12-13 12:53:00,
2013-12-13 07:02:00,7.0,0.0,-100.00,NE,34,7.0,13.0,71,0.00,,,0.00,,2013-12-13 13:02:00,
2013-12-13 07:42:00,6.0,-2.0,-100.00,NE,36,5.0,13.0,70,0.00,,,0.00,,2013-12-13 13:42:00,
2013-12-13 07:52:00,6.0,-2.0,-100.00,NE,36,5.0,13.0,70,0.00,,,0.00,,2013-12-13 13:52:00,
2013-12-13 08:02:00,6.0,-2.0,-100.00,NE,36,5.0,13.0,70,0.00,,,0.00,,2013-12-13 14:02:00,
2013-12-13 08:43:00,5.0,-3.0,-100.00,NNE,31,7.0,12.0,68,0.00,,,0.00,,2013-12-13 14:43:00,
2013-12-13 08:53:00,5.0,-3.0,-100.00,NNE,31,7.0,12.0,68,0.00,,,0.00,,2013-12-13 14:53:00,
2013-12-13 09:02:00,5.0,-3.0,-100.00,NNE,31,7.0,12.0,68,0.00,,,0.00,,2013-12-13 15:02:00,
2013-12-13 09:44:00,5.0,-4.0,-100.00,NE,40,7.0,16.0,67,0.00,,,0.00,,2013-12-13 15:44:00,
2013-12-13 09:54:00,5.0,-4.0,-100.00,NE,40,7.0,16.0,67,0.00,,,0.00,,2013-12-13 15:54:00,
2013-12-13 10:03:00,5.0,-4.0,-100.00,NE,40,7.0,16.0,67,0.00,,,0.00,,2013-12-13 16:03:00,
2013-12-13 10:43:00,6.0,-3.0,-100.00,NE,50,6.0,14.0,66,0.00,,,0.00,,2013-12-13 16:43:00,
2013-12-13 10:53:00,6.0,-3.0,-100.00,NE,50,6.0,14.0,66,0.00,,,0.00,,2013-12-13 16:53:00,
2013-12-13 11:02:00,6.0,-3.0,-100.00,NE,50,6.0,14.0,66,0.00,,,0.00,,2013-12-13 17:02:00,
2013-12-13 11:43:00,6.0,-4.0,-100.00,NE,36,6.0,13.0,63,0.00,,,0.00,,2013-12-13 17:43:00,
2013-12-13 11:52:00,6.0,-4.0,-100.00,NE,36,6.0,13.0,63,0.00,,,0.00,,2013-12-13 17:52:00,
2013-12-13 12:02:00,6.0,-4.0,-100.00,NE,36,6.0,13.0,63,0.00,,,0.00,,2013-12-13 18:02:00,
2013-12-13 12:42:00,6.0,-4.0,-100.00,NE,36,7.0,12.0,62,0.00,,,0.00,,2013-12-13 18:42:00,
2013-12-13 12:52:00,6.0,-4.0,-100.00,NE,36,7.0,12.0,62,0.00,,,0.00,,2013-12-13 18:52:00,
2013-12-13 13:02:00,6.0,-4.0,-100.00,NE,36,7.0,12.0,62,0.00,,,0.00,,2013-12-13 19:02:00,
2013-12-13 13:42:00,6.0,-5.0,-100.00,NE,39,6.0,14.0,61,0.00,,,0.00,,2013-12-13 19:42:00,
2013-12-13 13:52:00,6.0,-5.0,-100.00,NE,39,6.0,14.0,61,0.00,,,0.00,,2013-12-13 19:52:00,
2013-12-13 14:02:00,6.0,-5.0,-100.00,NE,39,6.0,14.0,61,0.00,,,0.00,,2013-12-13 20:02:00,
2013-12-13 14:42:00,6.0,-5.0,-100.00,NE,44,8.0,13.0,60,0.00,,,0.00,,2013-12-13 20:42:00,
2013-12-13 14:53:00,6.0,-5.0,-100.00,NE,44,8.0,13.0,60,0.00,,,0.00,,2013-12-13 20:53:00,
2013-12-13 15:02:00,6.0,-5.0,-100.00,NE,44,8.0,13.0,60,0.00,,,0.00,,2013-12-13 21:02:00,
2013-12-13 15:43:00,7.0,-4.0,-100.00,NE,48,7.0,12.0,60,0.00,,,0.00,,2013-12-13 21:43:00,
2013-12-13 15:53:00,7.0,-4.0,-100.00,NE,48,7.0,12.0,60,0.00,,,0.00,,2013-12-13 21:53:00,
2013-12-13 16:03:00,7.0,-4.0,-100.00,NE,48,7.0,12.0,60,0.00,,,0.00,,2013-12-13 22:03:00,
2013-12-13 16:42:00,5.0,-5.0,-100.00,NNE,31,5.0,12.0,61,0.00,,,0.00,,2013-12-13 22:42:00,
2013-12-13 16:53:00,5.0,-5.0,-100.00,NNE,31,5.0,12.0,61,0.00,,,0.00,,2013-12-13 22:53:00,
2013-12-13 17:03:00,5.0,-5.0,-100.00,NNE,31,5.0,12.0,61,0.00,,,0.00,,2013-12-13 23:03:00,
2013-12-13 17:42:00,4.0,-6.0,-100.00,NNE,29,7.0,11.0,63,0.00,,,0.00,,2013-12-13 23:42:00,
2013-12-13 17:53:00,4.0,-6.0,-100.00,NNE,29,7.0,11.0,63,0.00,,,0.00,,2013-12-13 23:53:00,
2013-12-13 18:02:00,4.0,-6.0,-100.00,NNE,29,7.0,11.0,63,0.00,,,0.00,,2013-12-14 00:02:00,
2013-12-13 18:42:00,5.0,-5.0,-100.00,NNE,21,6.0,13.0,63,0.00,,,0.00,,2013-12-14 00:42:00,
2013-12-13 18:52:00,5.0,-5.0,-100.00,NNE,21,6.0,13.0,63,0.00,,,0.00,,2013-12-14 00:52:00,
2013-12-13 19:02:00,5.0,-5.0,-100.00,NNE,21,6.0,13.0,63,0.00,,,0.00,,2013-12-14 01:02:00,
2013-12-13 19:42:00,4.0,-6.0,-100.00,NNE,33,8.0,15.0,62,0.00,,,0.00,,2013-12-14 01:42:00,
2013-12-13 19:52:00,4.0,-6.0,-100.00,NNE,33,8.0,15.0,62,0.00,,,0.00,,2013-12-14 01:52:00,
2013-12-13 20:01:00,4.0,-6.0,-100.00,NNE,33,8.0,15.0,62,0.00,,,0.00,,2013-12-14 02:01:00,
2013-12-13 20:42:00,4.0,-6.0,-100.00,NNE,28,6.0,13.0,61,0.00,,,0.00,,2013-12-14 02:42:00,
2013-12-13 20:52:00,4.0,-6.0,-100.00,NNE,28,6.0,13.0,61,0.00,,,0.00,,2013-12-14 02:52:00,
2013-12-13 21:02:00,4.0,-6.0,-100.00,NNE,28,6.0,13.0,61,0.00,,,0.00,,2013-12-14 03:02:00,
2013-12-13 21:43:00,4.0,-6.0,-100.00,NNE,33,7.0,13.0,62,0.00,,,0.00,,2013-12-14 03:43:00,
2013-12-13 21:54:00,4.0,-6.0,-100.00,NNE,33,7.0,13.0,62,0.00,,,0.00,,2013-12-14 03:54:00,
2013-12-13 22:03:00,4.0,-6.0,-100.00,NNE,33,7.0,13.0,62,0.00,,,0.00,,2013-12-14 04:03:00,
2013-12-13 22:43:00,4.0,-5.0,-100.00,NE,40,7.0,15.0,65,0.00,,,0.00,,2013-12-14 04:43:00,
2013-12-13 22:53:00,4.0,-5.0,-100.00,NE,40,7.0,15.0,65,0.00,,,0.00,,2013-12-14 04:53:00,
2013-12-13 23:03:00,4.0,-5.0,-100.00,NE,40,7.0,15.0,65,0.00,,,0.00,,2013-12-14 05:03:00,
2013-12-13 23:42:00,4.0,-4.0,-100.00,NE,35,6.0,11.0,67,0.00,,,0.00,,2013-12-14 05:42:00,
2013-12-13 23:53:00,4.0,-4.0,-100.00,NE,35,6.0,11.0,67,0.00,,,0.00,,2013-12-14 05:53:00,